QPF
0.03 0.03 0.03 0.04 0.05 0.05 0.06 0.07 0.06 0.05 0.04 0.03 0.03 0.02 0.01 0.01 0.01 0.01 0.01 0.01 0.01 0.01 0.01 0.01 0.01 0.01 0.01 0.02 0.02 0.02 0.02 0.02 0.02 0.03 0.06 0.08 0.06 0.03 0.03 0.05 0.08 0.05 0.02
0.03 0.02 0.03 0.04 0.04 0.04 0.05 0.05 0.05 0.04 0.03 0.03 0.02 0.01 0.01 0.01 0.00 0.00 0.00 0.00 0.01 0.01 0.01 0.01 0.01 0.01 0.01 0.01 0.02 0.02 0.02 0.02 0.02 0.02 0.03 0.08 0.09 0.06 0.05 0.05 0.06 0.04 0.03
0.03 0.03 0.03 0.03 0.04 0.05 0.06 0.05 0.05 0.03 0.03 0.02 0.01 0.01 0.01 0.01 0.00 0.00 0.01 0.01 0.02 0.02 0.02 0.02 0.01 0.01 0.01 0.01 0.01 0.01 0.01 0.01 0.01 0.01 0.02 0.03 0.06 0.06 0.06 0.06 0.05 0.05 0.03
0.02 0.02 0.02 0.02 0.03 0.04 0.06 0.06 0.04 0.04 0.03 0.02 0.02 0.01 0.01 0.01 0.01 0.01 0.01 0.01 0.01 0.01 0.01 0.01 0.01 0.01 0.01 0.01 0.01 0.01 0.01 0.01 0.01 0.02 0.03 0.04 0.05 0.06 0.06 0.04 0.04 0.04 0.02
0.01 0.01 0.01 0.02 0.02 0.03 0.05 0.06 0.04 0.03 0.02 0.02 0.02 0.01 0.02 0.02 0.01 0.01 0.01 0.01 0.01 0.00 0.01 0.01 0.01 0.01 0.01 0.01 0.01 0.01 0.01 0.01 0.01 0.02 0.04 0.04 0.05 0.07 0.07 0.05 0.03 0.03 0.03
0.01 0.01 0.01 0.01 0.02 0.04 0.06 0.06 0.05 0.04 0.03 0.02 0.02 0.01 0.01 0.01 0.01 0.01 0.01 0.01 0.01 0.01 0.01 0.01 0.02 0.02 0.02 0.02 0.02 0.02 0.02 0.02 0.02 0.02 0.04 0.05 0.06 0.08 0.08 0.06 0.04 0.03 0.03
0.01 0.01 0.01 0.01 0.03 0.05 0.05 0.04 0.05 0.05 0.03 0.02 0.03 0.02 0.01 0.01 0.00 0.00 0.01 0.02 0.05 0.03 0.01 0.02 0.01 0.02 0.02 0.02 0.01 0.01 0.01 0.01 0.01 0.02 0.03 0.06 0.07 0.07 0.07 0.06 0.06 0.04 0.03
0.02 0.02 0.02 0.02 0.03 0.04 0.04 0.05 0.05 0.04 0.04 0.03 0.02 0.02 0.01 0.01 0.00 0.00 0.01 0.02 0.03 0.01 0.01 0.01 0.01 0.01 0.01 0.01 0.01 0.01 0.01 0.01 0.02 0.01 0.01 0.03 0.04 0.06 0.06 0.05 0.05 0.04 0.03
0.02 0.02 0.02 0.02 0.01 0.02 0.03 0.03 0.04 0.04 0.04 0.04 0.02 0.01 0.01 0.00 0.01 0.01 0.01 0.01 0.01 0.02 0.04 0.03 0.02 0.01 0.01 0.01 0.01 0.01 0.01 0.01 0.02 0.02 0.01 0.01 0.02 0.03 0.05 0.05 0.05 0.04 0.04
0.02 0.02 0.02 0.02 0.01 0.01 0.02 0.02 0.03 0.04 0.04 0.04 0.02 0.01 0.00 0.00 0.01 0.01 0.01 0.01 0.01 0.02 0.04 0.04 0.02 0.02 0.02 0.02 0.02 0.03 0.03 0.02 0.03 0.02 0.02 0.02 0.02 0.03 0.03 0.04 0.04 0.04 0.04
0.02 0.02 0.02 0.01 0.01 0.01 0.01 0.02 0.02 0.03 0.03 0.03 0.02 0.01 0.01 0.00 0.01 0.02 0.02 0.01 0.01 0.01 0.02 0.02 0.02 0.03 0.03 0.02 0.03 0.05 0.05 0.04 0.04 0.03 0.03 0.03 0.03 0.04 0.05 0.06 0.07 0.06 0.04
0.02 0.02 0.01 0.01 0.01 0.01 0.02 0.02 0.03 0.03 0.02 0.03 0.02 0.01 0.01 0.01 0.01 0.01 0.01 0.01 0.01 0.02 0.02 0.02 0.03 0.04 0.04 0.04 0.05 0.07 0.06 0.04 0.04 0.04 0.04 0.04 0.04 0.06 0.07 0.07 0.06 0.06 0.05
0.02 0.02 0.02 0.02 0.02 0.02 0.02 0.02 0.02 0.02 0.02 0.03 0.02 0.02 0.02 0.01 0.01 0.01 0.01 0.01 0.01 0.01 0.01 0.01 0.01 0.02 0.03 0.04 0.05 0.05 0.04 0.04 0.04 0.04 0.03 0.03 0.04 0.05 0.05 0.05 0.04 0.04 0.05
0.01 0.02 0.02 0.02 0.02 0.02 0.02 0.02 0.02 0.01 0.02 0.04 0.03 0.02 0.02 0.01 0.01 0.01 0.01 0.00 0.00 0.00 0.00 0.00 0.00 0.01 0.02 0.04 0.04 0.04 0.03 0.03 0.04 0.03 0.03 0.03 0.04 0.04 0.04 0.04 0.04 0.04 0.03
0.02 0.02 0.02 0.02 0.02 0.03 0.02 0.02 0.01 0.01 0.02 0.03 0.02 0.01 0.01 0.01 0.01 0.01 0.01 0.00 0.00 0.00 0.00 0.00 0.00 0.00 0.01 0.02 0.03 0.03 0.03 0.03 0.04 0.04 0.03 0.04 0.04 0.04 0.04 0.03 0.03 0.03 0.02
0.02 0.02 0.02 0.02 0.02 0.02 0.01 0.02 0.02 0.02 0.02 0.02 0.02 0.01 0.01 0.00 0.00 0.00 0.00 0.00 0.00 0.00 0.00 0.00 0.00 0.00 0.01 0.01 0.01 0.02 0.03 0.03 0.04 0.04 0.04 0.04 0.04 0.04 0.03 0.03 0.04 0.04 0.03
0.02 0.01 0.01 0.01 0.02 0.02 0.02 0.02 0.02 0.02 0.01 0.01 0.01 0.01 0.01 0.00 0.00 0.00 0.00 0.00 0.01 0.01 0.00 0.00 0.00 0.01 0.01 0.01 0.01 0.01 0.02 0.02 0.03 0.03 0.03 0.03 0.03 0.03 0.04 0.04 0.04 0.04 0.04
0.02 0.01 0.01 0.01 0.02 0.02 0.02 0.02 0.02 0.02 0.01 0.00 0.00 0.01 0.00 0.00 0.00 0.00 0.00 0.00 0.01 0.01 0.01 0.01 0.01 0.01 0.01 0.01 0.01 0.01 0.01 0.01 0.01 0.01 0.02 0.03 0.03 0.03 0.03 0.04 0.05 0.05 0.04
0.01 0.02 0.02 0.03 0.03 0.03 0.02 0.02 0.02 0.02 0.01 0.00 0.00 0.01 0.00 0.00 0.00 0.00 0.00 0.00 0.00 0.01 0.01 0.01 0.01 0.01 0.01 0.01 0.02 0.01 0.01 0.01 0.01 0.01 0.01 0.02 0.02 0.02 0.02 0.02 0.03 0.04 0.03
0.02 0.03 0.03 0.04 0.04 0.03 0.02 0.02 0.02 0.01 0.01 0.01 0.01 0.01 0.00 0.00 0.00 0.00 0.00 0.00 0.00 0.01 0.02 0.02 0.02 0.01 0.01 0.02 0.01 0.01 0.00 0.00 0.01 0.01 0.01 0.01 0.01 0.02 0.02 0.03 0.03 0.02 0.02
0.03 0.04 0.04 0.03 0.03 0.02 0.02 0.02 0.01 0.01 0.01 0.01 0.00 0.00 0.00 0.00 0.00 0.00 0.00 0.00 0.00 0.01 0.01 0.02 0.02 0.02 0.01 0.01 0.01 0.01 0.00 0.01 0.01 0.01 0.01 0.01 0.01 0.01 0.02 0.02 0.01 0.02 0.02
0.04 0.04 0.03 0.02 0.02 0.02 0.02 0.01 0.01 0.01 0.00 0.00 0.00 0.00 0.00 0.00 0.00 0.00 0.00 0.00 0.01 0.01 0.01 0.01 0.02 0.01 0.01 0.01 0.02 0.01 0.01 0.01 0.00 0.00 0.00 0.00 0.01 0.02 0.02 0.02 0.01 0.01 0.02
0.03 0.03 0.03 0.02 0.02 0.02 0.02 0.01 0.01 0.00 0.00 0.00 0.00 0.00 0.00 0.00 0.00 0.00 0.00 0.00 0.00 0.01 0.01 0.01 0.01 0.01 0.01 0.01 0.02 0.01 0.00 0.00 0.00 0.00 0.00 0.00 0.01 0.02 0.02 0.02 0.01 0.01 0.01
0.03 0.03 0.03 0.02 0.02 0.02 0.02 0.01 0.00 0.00 0.00 0.00 0.00 0.00 0.00 0.00 0.00 0.00 0.00 0.00 0.00 0.01 0.01 0.01 0.01 0.01 0.01 0.00 0.00 0.00 0.00 0.00 0.00 0.00 0.00 0.00 0.00 0.01 0.01 0.01 0.01 0.01 0.01
0.01 0.03 0.04 0.03 0.02 0.02 0.01 0.01 0.01 0.00 0.00 0.00 0.00 0.00 0.00 0.00 0.00 0.00 0.00 0.00 0.00 0.00 0.00 0.00 0.00 0.00 0.00 0.00 0.00 0.00 0.00 0.00 0.00 0.00 0.00 0.00 0.00 0.00 0.01 0.01 0.01 0.01 0.01
0.02 0.04 0.04 0.03 0.03 0.02 0.01 0.01 0.01 0.01 0.01 0.00 0.00 0.00 0.00 0.00 0.00 0.00 0.00 0.00 0.00 0.00 0.00 0.00 0.00 0.00 0.00 0.00 0.00 0.00 0.00 0.00 0.00 0.00 0.00 0.00 0.00 0.00 0.00 0.00 0.00 0.01 0.01
MSLP
1011.19 1010.90 1010.69 1010.54 1010.43 1010.30 1010.16 1010.00 1009.81 1009.61 1009.40 1009.21 1009.05 1008.91 1008.80 1008.71 1008.64 1008.58 1008.54 1008.50 1008.47 1008.44 1008.41 1008.38 1008.34 1008.30 1008.26 1008.21 1008.15 1008.10 1008.04 1007.97 1007.89 1007.78 1007.65 1007.47 1007.26 1007.02 1006.78 1006.55 1006.37 1006.26 1006.24
1011.19 1010.85 1010.61 1010.43 1010.29 1010.16 1010.02 1009.87 1009.69 1009.51 1009.32 1009.15 1008.99 1008.87 1008.78 1008.72 1008.68 1008.66 1008.64 1008.62 1008.60 1008.56 1008.50 1008.43 1008.34 1008.24 1008.15 1008.05 1007.98 1007.91 1007.87 1007.82 1007.77 1007.70 1007.59 1007.44 1007.23 1006.99 1006.72 1006.45 1006.22 1006.04 1005.94
1011.24 1010.86 1010.58 1010.36 1010.20 1010.06 1009.93 1009.79 1009.63 1009.47 1009.32 1009.17 1009.04 1008.95 1008.88 1008.85 1008.83 1008.83 1008.83 1008.82 1008.78 1008.72 1008.62 1008.50 1008.35 1008.19 1008.03 1007.89 1007.77 1007.69 1007.63 1007.59 1007.56 1007.51 1007.42 1007.29 1007.10 1006.86 1006.58 1006.30 1006.03 1005.80 1005.63
1011.30 1010.89 1010.58 1010.34 1010.16 1010.01 1009.88 1009.76 1009.64 1009.51 1009.39 1009.27 1009.17 1009.10 1009.05 1009.03 1009.02 1009.02 1009.02 1008.99 1008.94 1008.84 1008.71 1008.53 1008.32 1008.10 1007.88 1007.68 1007.52 1007.39 1007.31 1007.26 1007.23 1007.18 1007.11 1007.00 1006.82 1006.60 1006.33 1006.05 1005.77 1005.51 1005.30
1011.31 1010.89 1010.56 1010.31 1010.13 1009.99 1009.87 1009.77 1009.68 1009.59 1009.49 1009.41 1009.33 1009.26 1009.21 1009.17 1009.15 1009.13 1009.11 1009.06 1008.97 1008.84 1008.67 1008.45 1008.19 1007.92 1007.65 1007.40 1007.18 1007.01 1006.89 1006.81 1006.76 1006.71 1006.64 1006.54 1006.39 1006.19 1005.95 1005.68 1005.40 1005.14 1004.91
1011.25 1010.84 1010.51 1010.26 1010.08 1009.96 1009.86 1009.79 1009.73 1009.66 1009.59 1009.51 1009.43 1009.35 1009.28 1009.21 1009.15 1009.09 1009.02 1008.94 1008.82 1008.66 1008.46 1008.21 1007.92 1007.61 1007.30 1007.00 1006.74 1006.52 1006.36 1006.24 1006.15 1006.08 1006.00 1005.90 1005.77 1005.60 1005.39 1005.15 1004.90 1004.66 1004.43
1011.10 1010.71 1010.40 1010.17 1010.01 1009.90 1009.83 1009.78 1009.73 1009.68 1009.62 1009.53 1009.43 1009.32 1009.20 1009.08 1008.97 1008.85 1008.74 1008.61 1008.47 1008.28 1008.06 1007.80 1007.50 1007.17 1006.83 1006.50 1006.19 1005.93 1005.71 1005.54 1005.41 1005.30 1005.20 1005.10 1004.98 1004.83 1004.65 1004.46 1004.25 1004.03 1003.82
1010.90 1010.53 1010.25 1010.04 1009.90 1009.81 1009.76 1009.72 1009.69 1009.63 1009.56 1009.45 1009.31 1009.15 1008.98 1008.80 1008.62 1008.45 1008.29 1008.13 1007.96 1007.77 1007.55 1007.28 1006.98 1006.64 1006.29 1005.93 1005.58 1005.26 1004.98 1004.75 1004.57 1004.42 1004.29 1004.17 1004.04 1003.91 1003.76 1003.60 1003.42 1003.24 1003.06
1010.68 1010.35 1010.09 1009.91 1009.78 1009.70 1009.66 1009.63 1009.58 1009.52 1009.42 1009.27 1009.09 1008.87 1008.64 1008.40 1008.17 1007.96 1007.76 1007.58 1007.40 1007.20 1006.99 1006.73 1006.44 1006.10 1005.73 1005.34 1004.95 1004.58 1004.24 1003.95 1003.70 1003.49 1003.32 1003.17 1003.03 1002.89 1002.75 1002.61 1002.45 1002.30 1002.14
1010.50 1010.20 1009.96 1009.78 1009.67 1009.59 1009.55 1009.50 1009.44 1009.35 1009.22 1009.04 1008.80 1008.54 1008.26 1007.97 1007.70 1007.45 1007.24 1007.05 1006.87 1006.69 1006.48 1006.24 1005.95 1005.61 1005.22 1004.80 1004.36 1003.94 1003.53 1003.17 1002.85 1002.58 1002.36 1002.17 1002.00 1001.84 1001.69 1001.54 1001.39 1001.24 1001.10
1010.38 1010.08 1009.85 1009.69 1009.57 1009.49 1009.42 1009.36 1009.28 1009.16 1008.99 1008.77 1008.50 1008.20 1007.88 1007.57 1007.28 1007.02 1006.80 1006.61 1006.44 1006.27 1006.08 1005.84 1005.55 1005.20 1004.78 1004.33 1003.84 1003.36 1002.89 1002.46 1002.08 1001.75 1001.47 1001.23 1001.02 1000.83 1000.65 1000.47 1000.29 1000.12 999.96
1010.28 1009.99 1009.77 1009.59 1009.47 1009.38 1009.30 1009.21 1009.10 1008.95 1008.75 1008.50 1008.20 1007.87 1007.54 1007.22 1006.92 1006.67 1006.46 1006.28 1006.12 1005.96 1005.77 1005.53 1005.23 1004.85 1004.41 1003.91 1003.38 1002.84 1002.32 1001.84 1001.40 1001.02 1000.69 1000.40 1000.14 999.90 999.67 999.44 999.21 999.00 998.80
1010.18 1009.89 1009.66 1009.48 1009.34 1009.24 1009.14 1009.03 1008.90 1008.72 1008.49 1008.22 1007.90 1007.56 1007.22 1006.90 1006.62 1006.37 1006.17 1006.01 1005.85 1005.69 1005.49 1005.24 1004.91 1004.51 1004.03 1003.49 1002.93 1002.35 1001.79 1001.27 1000.80 1000.38 1000.01 999.68 999.37 999.08 998.79 998.49 998.20 997.92 997.66
1010.00 1009.71 1009.48 1009.30 1009.16 1009.05 1008.94 1008.82 1008.66 1008.46 1008.21 1007.92 1007.59 1007.24 1006.90 1006.59 1006.30 1006.07 1005.87 1005.71 1005.55 1005.38 1005.16 1004.88 1004.52 1004.09 1003.58 1003.02 1002.42 1001.83 1001.25 1000.72 1000.23 999.80 999.41 999.05 998.71 998.36 998.01 997.65 997.29 996.93 996.60
1009.70 1009.42 1009.20 1009.03 1008.90 1008.79 1008.68 1008.55 1008.38 1008.16 1007.89 1007.58 1007.24 1006.88 1006.53 1006.21 1005.92 1005.68 1005.48 1005.30 1005.12 1004.92 1004.68 1004.37 1003.98 1003.52 1002.99 1002.42 1001.82 1001.23 1000.67 1000.15 999.67 999.24 998.86 998.49 998.12 997.74 997.34 996.92 996.48 996.04 995.63
1009.26 1008.99 1008.80 1008.66 1008.55 1008.46 1008.36 1008.23 1008.05 1007.82 1007.53 1007.19 1006.83 1006.45 1006.07 1005.73 1005.42 1005.16 1004.93 1004.72 1004.51 1004.28 1004.00 1003.66 1003.25 1002.77 1002.25 1001.68 1001.11 1000.55 1000.02 999.53 999.10 998.70 998.33 997.96 997.58 997.18 996.74 996.27 995.77 995.26 994.78
1008.70 1008.47 1008.32 1008.22 1008.15 1008.09 1008.01 1007.89 1007.70 1007.45 1007.14 1006.77 1006.36 1005.94 1005.54 1005.15 1004.81 1004.50 1004.23 1003.98 1003.73 1003.46 1003.15 1002.79 1002.37 1001.90 1001.39 1000.86 1000.32 999.81 999.34 998.91 998.52 998.16 997.82 997.46 997.08 996.66 996.19 995.67 995.13 994.57 994.03
1008.07 1007.90 1007.80 1007.76 1007.74 1007.72 1007.66 1007.54 1007.35 1007.08 1006.73 1006.32 1005.87 1005.40 1004.94 1004.51 1004.11 1003.75 1003.43 1003.14 1002.85 1002.54 1002.21 1001.84 1001.43 1000.98 1000.51 1000.03 999.55 999.11 998.70 998.32 997.98 997.66 997.34 997.00 996.62 996.18 995.68 995.13 994.55 993.95 993.36
1007.45 1007.33 1007.30 1007.32 1007.36 1007.37 1007.34 1007.23 1007.02 1006.72 1006.33 1005.88 1005.37 1004.85 1004.33 1003.84 1003.39 1002.99 1002.62 1002.29 1001.97 1001.65 1001.31 1000.95 1000.56 1000.15 999.72 999.30 998.89 998.51 998.17 997.85 997.55 997.25 996.94 996.60 996.20 995.74 995.22 994.65 994.03 993.40 992.78
1006.89 1006.84 1006.87 1006.94 1007.02 1007.07 1007.05 1006.93 1006.71 1006.38 1005.95 1005.44 1004.89 1004.31 1003.75 1003.21 1002.72 1002.28 1001.88 1001.52 1001.19 1000.87 1000.55 1000.21 999.86 999.50 999.14 998.78 998.44 998.12 997.82 997.54 997.26 996.98 996.66 996.30 995.88 995.39 994.83 994.22 993.58 992.93 992.29
1006.42 1006.43 1006.51 1006.63 1006.74 1006.79 1006.77 1006.64 1006.39 1006.02 1005.55 1005.01 1004.42 1003.80 1003.21 1002.64 1002.13 1001.68 1001.28 1000.92 1000.60 1000.30 1000.01 999.72 999.42 999.12 998.82 998.53 998.24 997.97 997.71 997.45 997.17 996.87 996.53 996.13 995.67 995.13 994.54 993.90 993.23 992.55 991.89
1006.05 1006.10 1006.21 1006.34 1006.46 1006.51 1006.46 1006.30 1006.02 1005.61 1005.11 1004.54 1003.93 1003.31 1002.71 1002.15 1001.65 1001.21 1000.83 1000.51 1000.22 999.97 999.73 999.49 999.25 999.02 998.78 998.54 998.30 998.06 997.82 997.56 997.27 996.94 996.56 996.11 995.59 995.01 994.37 993.69 992.99 992.29 991.62
1005.75 1005.80 1005.92 1006.04 1006.13 1006.15 1006.06 1005.86 1005.54 1005.11 1004.59 1004.01 1003.40 1002.80 1002.23 1001.71 1001.25 1000.87 1000.54 1000.28 1000.05 999.86 999.68 999.50 999.33 999.15 998.96 998.77 998.57 998.35 998.12 997.84 997.53 997.16 996.73 996.22 995.65 995.01 994.32 993.60 992.87 992.16 991.47
1005.45 1005.50 1005.58 1005.67 1005.71 1005.67 1005.53 1005.29 1004.93 1004.49 1003.97 1003.40 1002.83 1002.28 1001.77 1001.32 1000.94 1000.64 1000.39 1000.20 1000.05 999.92 999.80 999.69 999.57 999.44 999.30 999.14 998.96 998.75 998.51 998.22 997.87 997.46 996.98 996.42 995.80 995.11 994.38 993.62 992.87 992.13 991.44
1005.13 1005.13 1005.17 1005.19 1005.16 1005.06 1004.87 1004.58 1004.21 1003.76 1003.26 1002.74 1002.23 1001.76 1001.35 1001.00 1000.72 1000.51 1000.36 1000.25 1000.18 1000.11 1000.06 999.99 999.91 999.82 999.70 999.56 999.39 999.18 998.92 998.61 998.23 997.78 997.25 996.65 995.97 995.25 994.48 993.70 992.92 992.17 991.47
1004.73 1004.68 1004.65 1004.60 1004.50 1004.34 1004.10 1003.79 1003.40 1002.98 1002.53 1002.08 1001.67 1001.31 1001.01 1000.77 1000.61 1000.51 1000.45 1000.43 1000.42 1000.41 1000.39 1000.36 1000.30 1000.22 1000.11 999.96 999.78 999.55 999.27 998.93 998.52 998.03 997.46 996.82 996.11 995.35 994.56 993.76 992.96 992.20 991.50
Thickness
5656 5655 5653 5651 5650 5649 5648 5647 5647 5645 5644 5641 5640 5637 5634 5632 5629 5626 5624 5622 5619 5617 5615 5612 5609 5607 5605 5603 5601 5599 5597 5594 5594 5597 5600 5604 5605 5606 5608 5609 5610 5611 5613
5652 5650 5648 5647 5646 5645 5644 5644 5644 5642 5641 5638 5636 5633 5631 5628 5625 5622 5619 5618 5615 5612 5610 5607 5605 5604 5601 5598 5596 5595 5593 5591 5590 5591 5595 5597 5599 5601 5601 5602 5603 5605 5606
5646 5644 5643 5642 5641 5641 5640 5641 5640 5639 5637 5635 5633 5629 5627 5624 5621 5619 5616 5613 5611 5608 5605 5602 5600 5598 5596 5594 5592 5590 5589 5589 5587 5586 5589 5591 5593 5595 5595 5596 5597 5597 5599
5641 5639 5638 5638 5638 5637 5637 5636 5636 5635 5634 5632 5629 5627 5624 5621 5618 5615 5612 5609 5606 5604 5601 5599 5596 5594 5592 5590 5589 5587 5585 5584 5582 5582 5583 5585 5586 5588 5588 5588 5589 5590 5592
5638 5636 5635 5635 5634 5634 5633 5632 5632 5632 5631 5629 5626 5624 5621 5618 5615 5611 5608 5606 5602 5599 5598 5596 5594 5592 5590 5587 5585 5582 5581 5579 5578 5578 5578 5579 5580 5581 5582 5582 5582 5583 5585
5635 5633 5633 5632 5631 5629 5629 5628 5627 5627 5626 5625 5622 5620 5617 5615 5612 5609 5605 5601 5598 5596 5593 5592 5590 5588 5586 5584 5581 5580 5577 5575 5574 5573 5573 5573 5575 5576 5577 5577 5576 5575 5576
5632 5631 5630 5629 5627 5627 5626 5625 5623 5622 5622 5621 5619 5616 5613 5611 5609 5605 5602 5598 5594 5592 5590 5587 5586 5585 5581 5578 5576 5575 5574 5572 5571 5569 5568 5569 5570 5571 5571 5571 5570 5569 5570
5630 5628 5627 5626 5625 5624 5623 5622 5620 5620 5619 5618 5616 5613 5611 5609 5606 5603 5600 5595 5592 5589 5586 5584 5580 5578 5576 5573 5570 5569 5568 5568 5567 5566 5565 5565 5566 5566 5565 5564 5564 5564 5566
5627 5626 5625 5624 5623 5622 5620 5619 5619 5618 5617 5615 5614 5611 5608 5606 5604 5601 5597 5592 5589 5586 5583 5581 5577 5573 5571 5568 5565 5563 5563 5563 5564 5563 5562 5561 5561 5561 5560 5558 5557 5557 5559
5625 5624 5624 5623 5621 5620 5619 5618 5618 5617 5616 5614 5612 5609 5607 5604 5603 5599 5595 5590 5585 5582 5579 5576 5573 5569 5566 5563 5560 5557 5556 5557 5557 5557 5556 5556 5555 5555 5555 5552 5551 5550 5551
5624 5623 5622 5621 5620 5619 5618 5618 5617 5616 5614 5612 5609 5607 5605 5603 5601 5598 5593 5586 5581 5577 5574 5571 5569 5566 5562 5560 5557 5553 5552 5551 5549 5549 5548 5549 5549 5549 5548 5548 5547 5545 5545
5623 5621 5620 5620 5620 5620 5618 5618 5617 5615 5612 5610 5607 5604 5602 5601 5598 5595 5591 5585 5580 5573 5570 5567 5564 5561 5558 5556 5554 5552 5550 5547 5544 5543 5541 5541 5541 5541 5542 5542 5542 5542 5542
5622 5620 5619 5619 5619 5619 5618 5617 5615 5613 5610 5608 5605 5601 5599 5598 5595 5592 5588 5583 5578 5571 5567 5564 5560 5557 5555 5552 5551 5548 5546 5542 5539 5536 5534 5533 5533 5533 5535 5535 5536 5536 5537
5622 5620 5619 5618 5618 5618 5617 5617 5615 5612 5610 5607 5604 5601 5598 5595 5592 5589 5584 5579 5575 5570 5564 5560 5558 5554 5551 5548 5546 5543 5540 5536 5532 5529 5527 5527 5526 5526 5526 5526 5526 5527 5527
5622 5621 5619 5618 5617 5617 5617 5616 5615 5615 5613 5609 5605 5602 5598 5594 5592 5587 5581 5576 5571 5566 5561 5557 5553 5549 5546 5543 5540 5537 5534 5530 5527 5524 5521 5519 5519 5519 5519 5518 5517 5517 5517
5623 5621 5620 5619 5618 5618 5617 5617 5618 5616 5615 5613 5608 5604 5600 5596 5592 5586 5581 5576 5570 5565 5559 5553 5548 5544 5540 5537 5533 5530 5527 5523 5520 5518 5516 5513 5512 5511 5511 5511 5510 5509 5509
5624 5623 5622 5621 5620 5619 5618 5617 5615 5615 5615 5612 5609 5605 5601 5597 5591 5585 5580 5575 5569 5563 5556 5550 5545 5540 5535 5531 5527 5523 5520 5517 5514 5512 5509 5507 5506 5505 5504 5503 5503 5503 5503
5627 5626 5624 5623 5622 5621 5620 5619 5617 5614 5611 5609 5608 5606 5602 5597 5591 5585 5579 5574 5567 5561 5554 5548 5542 5537 5531 5526 5522 5517 5514 5511 5508 5506 5503 5501 5499 5498 5497 5496 5496 5495 5495
5628 5627 5626 5625 5624 5623 5622 5621 5619 5616 5613 5609 5606 5604 5601 5596 5590 5584 5578 5571 5564 5558 5552 5545 5540 5534 5528 5522 5517 5513 5509 5506 5503 5499 5496 5494 5493 5491 5490 5490 5490 5489 5489
5630 5630 5628 5627 5626 5625 5624 5622 5620 5617 5614 5610 5607 5603 5599 5593 5587 5581 5576 5570 5563 5556 5549 5543 5537 5531 5524 5518 5513 5508 5505 5501 5497 5494 5491 5488 5487 5486 5485 5484 5484 5483 5483
5631 5630 5630 5628 5627 5627 5625 5624 5622 5618 5615 5611 5608 5605 5599 5592 5586 5580 5575 5568 5562 5555 5548 5541 5534 5528 5521 5514 5509 5504 5500 5495 5491 5488 5485 5483 5482 5480 5479 5479 5478 5478 5478
5633 5631 5630 5630 5629 5628 5627 5626 5623 5620 5616 5612 5608 5603 5598 5592 5586 5580 5573 5567 5561 5554 5547 5540 5532 5525 5518 5511 5505 5499 5495 5490 5486 5483 5480 5478 5476 5475 5474 5474 5474 5473 5472
5634 5633 5632 5631 5631 5630 5629 5627 5625 5621 5617 5613 5608 5603 5597 5591 5585 5579 5573 5566 5560 5552 5545 5538 5530 5522 5515 5508 5502 5496 5490 5485 5481 5478 5475 5473 5472 5470 5469 5469 5469 5468 5467
5636 5635 5634 5633 5632 5631 5629 5628 5625 5622 5618 5613 5608 5603 5597 5591 5585 5578 5572 5565 5558 5551 5544 5536 5528 5520 5513 5506 5500 5494 5488 5484 5480 5477 5473 5470 5468 5466 5465 5464 5464 5463 5462
5637 5637 5636 5635 5634 5632 5631 5629 5626 5622 5618 5613 5608 5602 5596 5590 5584 5577 5571 5564 5557 5549 5541 5533 5526 5518 5511 5504 5498 5492 5487 5483 5479 5476 5472 5469 5466 5464 5462 5461 5459 5458 5456
5639 5639 5638 5637 5636 5634 5632 5630 5626 5622 5618 5614 5608 5602 5596 5590 5583 5576 5569 5563 5555 5547 5539 5531 5523 5516 5509 5502 5496 5490 5486 5482 5478 5475 5471 5467 5464 5461 5458 5456 5455 5452 5451